Flag for Greece Weather past 2 weeks in Preveza, Greece

Now
45 °F

Clear.


Feels Like: 41 °F
Forecast: 44 / 58 °F
Wind: 7 mph from Northeast

Location: Aktion Airport

Current Time: Dec 22, 2014 at 10:47:51 PM

Latest Report: Dec 22, 2014 at 9:50 PM


Visibility: 10 mi

Pressure: 30.39 "Hg

Humidity: 87%

Dew point: 41 °F

Location of PrevezaLocation

Historic Weather in Preveza — Graph

°F

Preveza temperature yesterday

Maximum temperature yesterday: 61 °F (at 2:20 PM)
Minimum temperature yesterday: 46 °F (at 7:50 AM)
Average temperature yesterday: 54 °F

Past Weeks' High & Low Weather Summary

 TemperatureHumidityPressure
High64 °F (Dec 9, 1:20 PM)100% (Dec 22, 1:50 AM)30.42 "Hg (Dec 22, 1:50 AM)
Low43 °F (Dec 22, 7:20 PM)27% (Dec 22, 2:20 PM)29.65 "Hg (Dec 8, 1:20 PM)
Average54 °F75%30.08 "Hg
* Reported Dec 7 9:50 PM — Dec 22 9:50 PM, Preveza, Weather by CustomWeather, © 2014

Note: Actual official high and low records may vary slightly from our data, if they occured in-between our weather recording intervals... More about our weather records

Advertising

Preveza weather history for previous 24 hours

 ConditionsComfort  
Time TempWeatherWind HumidityBarometerVisibility
9:50 PM
Dec 22
45 °FClear.7 mph87%30.39 "Hg10 mi
8:50 PM45 °FClear.No wind76%30.39 "Hg10 mi
7:50 PM43 °FClear.No wind71%30.39 "Hg10 mi
7:20 PM43 °FClear.No wind76%30.39 "Hg10 mi
6:50 PM45 °FClear.No wind71%30.39 "Hg10 mi
6:20 PM48 °FClear.No wind58%30.36 "Hg10 mi
5:50 PM50 °FClear.No wind58%30.36 "Hg10 mi
5:20 PM52 °FClear.No wind35%30.36 "Hg10 mi
4:50 PM54 °FSunny.No wind44%30.36 "Hg10 mi
4:20 PM55 °FSunny.No wind36%30.39 "Hg10 mi
3:50 PM55 °FSunny.No wind31%30.36 "Hg10 mi
3:20 PM57 °FSunny.No wind36%30.36 "Hg10 mi
2:50 PM57 °FSunny.No wind31%30.36 "Hg10 mi
2:20 PM57 °FSunny.3 mph27%30.39 "Hg10 mi
1:50 PM55 °FPassing clouds.7 mph28%30.39 "HgN/A
1:20 PM55 °FPassing clouds.8 mph28%30.39 "HgN/A
12:50 PM54 °FPassing clouds.9 mph35%30.42 "HgN/A
12:20 PM54 °FPassing clouds.9 mph33%30.42 "HgN/A
11:50 AM52 °FPassing clouds.10 mph41%30.42 "HgN/A
11:20 AM52 °FPassing clouds.13 mph41%30.42 "HgN/A
10:50 AM52 °FPassing clouds.12 mph41%30.42 "HgN/A
10:20 AM50 °FPassing clouds.12 mph43%30.42 "HgN/A
9:50 AM50 °FPassing clouds.12 mph47%30.42 "HgN/A
9:20 AM50 °FPassing clouds.12 mph43%30.42 "HgN/A
8:50 AM48 °FPassing clouds.13 mph50%30.39 "HgN/A
8:20 AM46 °FPassing clouds.13 mph50%30.39 "HgN/A
7:50 AM46 °FPassing clouds.14 mph50%30.39 "HgN/A
7:20 AM46 °FPassing clouds.14 mph50%30.36 "HgN/A
6:50 AM46 °FPassing clouds.10 mph50%30.36 "HgN/A
6:20 AM48 °FPassing clouds.14 mph46%30.33 "HgN/A
5:50 AM48 °FPassing clouds.14 mph46%30.33 "HgN/A
5:20 AM48 °FPassing clouds.14 mph40%30.33 "HgN/A
4:50 AM50 °FPassing clouds.18 mph37%30.33 "HgN/A
4:20 AM50 °FPassing clouds.18 mph37%30.33 "HgN/A
2:50 AM50 °FPassing clouds.18 mph37%30.33 "HgN/A
1:50 AM55 °FPassing clouds.18 mph100%30.30 "HgN/A
12:50 AM52 °FPassing clouds.16 mph47%30.33 "HgN/A
11:50 PM
Dec 21
52 °FPassing clouds.17 mph50%30.30 "HgN/A
10:50 PM54 °FPassing clouds.17 mph47%30.30 "HgN/A
Weather by CustomWeather, © 2014

See weather overviewHow to use our weather pages